BAW907 EDDF-EGLL

Flight info

Callsign BAW907
Flight time N/A
Altitude 38000
Route OBOKA5G/25C OBOKA Z29 TORNU DCT ABNED L980 LOGAN
Aircraft B77W/H-SDE1E2E3FGHIJ2J3J4J5M1RWXY/LB1D1

Departure

Time 2026-05-05 13:26
Airport Frankfurt Main Airport (EDDF)

Arrival

Time N/A
Airport London Heathrow Airport (EGLL)
Time Latitude Longitude Altitude Speed Heading
2026-05-05 12:40 50.05014 8.58541 378 ft 0 kts 339°
2026-05-05 13:18 50.05013 8.58542 378 ft 2 kts 339°
2026-05-05 13:19 50.04988 8.58555 378 ft 3 kts 339°
2026-05-05 13:19 50.04969 8.58567 378 ft 4 kts 325°
2026-05-05 13:19 50.04952 8.58592 378 ft 4 kts 298°
2026-05-05 13:19 50.04943 8.58626 378 ft 4 kts 272°
2026-05-05 13:20 50.04946 8.58664 378 ft 3 kts 250°
2026-05-05 13:20 50.04954 8.58701 378 ft 4 kts 249°
2026-05-05 13:20 50.04964 8.58740 378 ft 4 kts 249°
2026-05-05 13:20 50.04969 8.58760 378 ft 0 kts 249°
2026-05-05 13:23 50.04963 8.58735 378 ft 7 kts 249°
2026-05-05 13:24 50.04895 8.58683 378 ft 13 kts 168°
2026-05-05 13:24 50.04809 8.58717 378 ft 12 kts 164°
2026-05-05 13:24 50.04729 8.58753 378 ft 12 kts 166°
2026-05-05 13:24 50.04649 8.58762 378 ft 15 kts 186°
2026-05-05 13:25 50.04557 8.58708 378 ft 14 kts 211°
2026-05-05 13:25 50.04489 8.58596 378 ft 16 kts 245°
2026-05-05 13:25 50.04383 8.58156 378 ft 82 kts 249°
2026-05-05 13:25 50.04092 8.56928 379 ft 157 kts 250°
2026-05-05 13:26 50.03682 8.55145 799 ft 183 kts 250°
2026-05-05 13:26 50.03242 8.53294 1774 ft 184 kts 248°
2026-05-05 13:26 50.02791 8.51363 2436 ft 197 kts 254°
2026-05-05 13:26 50.02628 8.49166 3014 ft 215 kts 267°
2026-05-05 13:27 50.02722 8.46711 3500 ft 239 kts 272°
2026-05-05 13:27 50.02753 8.44067 4134 ft 255 kts 268°
2026-05-05 13:27 50.02645 8.41273 5049 ft 261 kts 263°
2026-05-05 13:27 50.02386 8.38462 6056 ft 265 kts 259°
2026-05-05 13:28 50.02037 8.35628 7019 ft 270 kts 257°
2026-05-05 13:28 50.01671 8.32747 7945 ft 274 kts 258°
2026-05-05 13:28 50.01481 8.29778 8808 ft 280 kts 271°
2026-05-05 13:28 50.01843 8.26796 9681 ft 286 kts 284°
2026-05-05 13:29 50.02480 8.23793 10382 ft 299 kts 288°
2026-05-05 13:29 50.03290 8.20710 10945 ft 318 kts 291°
2026-05-05 13:29 50.04233 8.17544 11531 ft 336 kts 292°
2026-05-05 13:29 50.05302 8.14207 12168 ft 353 kts 297°
2026-05-05 13:30 50.06636 8.10913 13008 ft 366 kts 302°
2026-05-05 13:30 50.08154 8.07660 13887 ft 376 kts 305°
2026-05-05 13:30 50.09790 8.04429 14834 ft 383 kts 307°
2026-05-05 13:30 50.11510 8.01156 15752 ft 390 kts 307°
2026-05-05 13:31 50.13211 7.97883 16678 ft 395 kts 307°
2026-05-05 13:31 50.14941 7.94516 17554 ft 401 kts 306°
2026-05-05 13:31 50.16691 7.91087 18428 ft 406 kts 306°
2026-05-05 13:31 50.18436 7.87662 19270 ft 411 kts 306°
2026-05-05 13:32 50.20227 7.84144 20057 ft 417 kts 306°
2026-05-05 13:32 50.22044 7.80577 20870 ft 422 kts 307°
2026-05-05 13:32 50.24050 7.77186 21562 ft 430 kts 315°
2026-05-05 13:32 50.26404 7.74263 22315 ft 434 kts 322°
2026-05-05 13:33 50.27220 7.73318 22537 ft 436 kts 321°